Weather History for LEBZ - July, 2013

Change the Weather History Date:

Thursday, July 18, 2013

  Actual Average Record
Temperature  
Mean Temperature 80 °F -  
Max Temperature 97 °F - - ()
Min Temperature 64 °F - - ()
Cooling Degree Days 16    
Growing Degree Days 30 (Base 50)    
Moisture  
Dew Point 57 °F    
Average Humidity 50    
Maximum Humidity 94    
Minimum Humidity 17    
Precipitation  
Precipitation 0.00 in 0.01 in - ()
Sea Level Pressure  
Sea Level Pressure 30.01 in    
Wind  
Wind Speed 4 mph ()    
Max Wind Speed 12 mph    
Max Gust Speed -    
Visibility 8.8 miles    
Events      
T = Trace of Precipitation, MM = Missing Value Source: Averaged Metar Reports

Daily Weather History Graph

Daily Weather History Graph

Search for Another Location

Airport or City:

Trip Planner

Search our weather history database for the weather conditions in past years. The results will help you decide how hot, cold, wet, or windy it might be!

Date:

Astronomy

Jul. 18, 2013 Rise Set
Actual Time 7:16 AM CEST 9:50 PM CEST
Civil Twilight 6:45 AM CEST 10:20 PM CEST
Nautical Twilight 6:07 AM CEST 10:59 PM CEST
Astronomical Twilight 5:24 AM CEST 11:41 PM CEST
Moon 5:31 PM CEST (7/18) 2:55 AM CEST (7/18)
Length of Visible Light 15h 35m
Length of Day
14h 33m
Waxing Gibbous, 75% of the Moon is Illuminated
Jul 18
Waxing Gibbous
Jul 22
Full
Jul 29
Last Quarter
Aug 6
New
Aug 14
First Quarter

Hourly Weather History & Observations

Time (CEST) Temp. Heat Index Dew Point Humidity Pressure Visibility Wind Dir Wind Speed Gust Speed Precip Events Conditions
6:00 AM 64.4 °F - 60.8 °F 88% 30.04 in - WNW 3.5 mph - N/A   Clear
7:00 AM 62.6 °F - 60.8 °F 94% 30.06 in 5.0 mi WNW 3.5 mph - N/A   Unknown
8:00 AM 65 °F - 63 °F 92% 30.06 in 6 mi West 3.5 mph - -   Scattered Clouds
8:00 AM 64.4 °F - 62.6 °F 94% 30.06 in 5.0 mi Variable 1.2 mph - N/A   Unknown
9:00 AM 66.2 °F - 62.6 °F 88% 30.06 in - Calm Calm - N/A   Clear
10:00 AM 71.6 °F - 64.4 °F 78% 30.06 in - Variable 1.2 mph - N/A   Clear
11:00 AM 75.2 °F - 64.4 °F 69% 30.06 in - NNE 2.3 mph - N/A   Clear
12:00 PM 80.6 °F 81.8 °F 62.6 °F 54% 30.06 in - Variable 2.3 mph - N/A   Clear
1:00 PM 84.2 °F 85.0 °F 62.6 °F 48% 30.06 in - East 3.5 mph - N/A   Clear
2:00 PM 87 °F - 65 °F 38% 30.01 in 12 mi NNE 2.3 mph - -   Clear
2:00 PM 87.8 °F 88.5 °F 62.6 °F 43% 30.04 in - NNE 3.5 mph - N/A   Clear
3:00 PM 89.6 °F 89.5 °F 60.8 °F 38% 30.04 in - NNE 4.6 mph - N/A   Clear
4:00 PM 93.2 °F - 48.2 °F 21% 30.01 in - NNW 8.1 mph - N/A   Clear
5:00 PM 95.0 °F - 48.2 °F 20% 29.98 in - North 8.1 mph - N/A   Clear
6:00 PM 96.8 °F - 46.4 °F 18% 29.95 in - NNW 8.1 mph - N/A   Clear
7:00 PM 96.8 °F - 44.6 °F 17% 29.95 in - NW 11.5 mph - N/A   Clear
8:00 PM 96 °F - 55 °F 17% 29.90 in 16 mi West 9.2 mph - -  
8:00 PM 95.0 °F - 44.6 °F 18% 29.95 in - WNW 8.1 mph - N/A   Clear
9:00 PM 91.4 °F - 50.0 °F 24% 29.95 in - West 6.9 mph - N/A   Clear
10:00 PM 82.4 °F 81.7 °F 55.4 °F 39% 29.98 in - West 8.1 mph - N/A   Clear